STARLINK-1246, 45235

Orbit data source: Space-Track

STARLINK-1246, 45235 is a payload satellite owned by SpaceX/Seattle (US) in LEO that was launched on Mon, 17 Feb 2020 UTC via an FALCON 9 launch vehicle from the Air Force Eastern Test Range (AFETR). Payload-class satellites include a variety of spacecraft equipped with specific instruments for various scientific and technological missions. These include communications satellites like Starlink; space stations such as the ISS; scientific satellites like the Hubble; Earth observation satellites from companies like Planet Labs, Umbra, and HawkEye 360; GPS; miniature CubeSats for education and research; and military/defense satellites.

Loading next visibility...
Identifier
45235, 2020-012BK
Orbit
LEO
Country
Flag of USUS
Related business
Manufacturer
SpaceX/Seattle
Mission
Partially operational Commercial Communications
Bus & Motor
STARLINK, Unknown motor
Mass
260 kg wet, ~248 kg dry
Launch date (UTC)
2020-02-17 (6 years ago)
Launch vehicle
FALCON 9
Launch site
Air Force Eastern Test Range (AFETR)
Object type
Payload
Rocket body
Debris
Shape & HBR
Box + 1 Pan, 10.1 m
Radar Cross Section
13.562 m², Large (>1 m²)

Expand to show TLE details & history
Last TLE update: 3 days ago

TLE from 3 days ago
0 STARLINK-1246
1 45235U 20012BK  26170.57781935  .00040645  00000-0  11451-2 0  9998
2 45235  53.1566 284.4976 0002458 291.4363  68.6378 15.36068415350593
Epoch: 2026-06-19T13:52Z
TLE epoch observation values (Epoch: 2026-06-19T13:52:03.591Z)
Latitude
-0.00004°
Longitude
168.67782°
Altitude
458.039 km
Speed
7.639 km/s
True Right ascension
18h 57m 59s
True Declination
0° 00' 00"
Sunlit
Object was in full shadow at epoch
Visualization orbit readout
Latitude
Unknown
Longitude
Unknown
Altitude
Unknown
Speed
Unknown
Apparent Right ascension
Unknown
Apparent Declination
Unknown
Sunlit
N/A
Visualization observer readout
Local Sidereal Time
02:13:22
Azimuth
Unknown
Elevation
Unknown
Doppler factor
Unknown
Orbital elements
Apogee altitude
459.687 km
Perigee altitude
456.326 km
Semi-major axis
6,836.143 km
Eccentricity
0.00025
Inclination
53.1566°
RAAN
284.4976°
Arg. of periapsis
291.4363°
True anomaly
68.66403°
Mean anomaly
68.6378°
Eccentric anomaly
68.65092°
Mean motion
3.83996 °/min
Orbital period
93.75 mins
BSTAR
0.0011451
Loading maneuver chart data...
Computing Atmospheric mass density...

Documentation

Showing up to 5 results
|